^^

..:: Storico WU ::..




Lo storico viene creato da WUnderground con i dati che la stazione Meteomincio invia al loro server. L' aggiornamento viene fatto ogni 5 minuti circa, tuttavia possono esserci intervalli pił ampi a causa di errori, interruzioni di servizio o problemi nell' invio tramite FTP.


Storico stazione MeteoMincio
Giorno Sommario per Marzo 20, 2022 Unità:  Inglese    Metrico   Entrambi
Giorno Settimana Mese Anno
  Max: Min: Media:
Temperatura: 59 °F 39.2 °F 49.1 °F
Dew Point: 32 °F 24.8 °F 28.4 °F
Umidità: 62% 30% 46%
Velocità vento: 18mph 2.5mph 9mph
Raffica: 26.7mph - -
Direzione- - East
Pressione: 30.6 in 30.5 in -
Precipitazioni: 0 in    
 
 
Tabulato Dati per Marzo 20, 2022
Ora Temperatura Dew Point Pressione Direzione Velocità vento Raffica Umidità Intensità pioggia (oraria) Info solare Situazione
00:04 42.8 °F 28.4 °F 30.6 in ENE 4.3 mph 6.2 mph 59% 0 in 0.00 W/m2 unknown
00:09 42.8 °F 28.4 °F 30.6 in ENE 3.7 mph 5 mph 59% 0 in 0.00 W/m2 unknown
00:14 41 °F 28.4 °F 30.6 in East 4.3 mph 6.8 mph 59% 0 in 0.00 W/m2 unknown
00:19 41 °F 28.4 °F 30.6 in East 3.7 mph 6.2 mph 59% 0 in 0.00 W/m2 unknown
00:24 41 °F 28.4 °F 30.6 in East 3.1 mph 6.2 mph 59% 0 in 0.00 W/m2 unknown
00:29 41 °F 28.4 °F 30.6 in East 3.7 mph 5 mph 60% 0 in 0.00 W/m2 unknown
00:34 41 °F 28.4 °F 30.6 in ENE 3.7 mph 4.3 mph 61% 0 in 0.00 W/m2 unknown
00:39 41 °F 28.4 °F 30.6 in ENE 3.1 mph 5 mph 61% 0 in 0.00 W/m2 unknown
00:44 41 °F 28.4 °F 30.6 in ENE 3.1 mph 5 mph 61% 0 in 0.00 W/m2 unknown
00:49 41 °F 28.4 °F 30.6 in ENE 3.1 mph 5 mph 60% 0 in 0.00 W/m2 unknown
00:54 41 °F 28.4 °F 30.6 in ENE 3.7 mph 5 mph 60% 0 in 0.00 W/m2 unknown
00:59 41 °F 28.4 °F 30.6 in ENE 3.1 mph 5 mph 60% 0 in 0.00 W/m2 unknown
01:04 41 °F 28.4 °F 30.6 in ENE 4.3 mph 5 mph 60% 0 in 0.00 W/m2 unknown
01:09 41 °F 28.4 °F 30.6 in ENE 3.7 mph 5 mph 60% 0 in 0.00 W/m2 unknown
01:14 41 °F 26.6 °F 30.6 in NE 3.1 mph 5 mph 60% 0 in 0.00 W/m2 unknown
01:19 39.2 °F 26.6 °F 30.6 in ENE 5 mph 8.7 mph 60% 0 in 0.00 W/m2 unknown
01:24 39.2 °F 26.6 °F 30.6 in ENE 6.2 mph 9.3 mph 60% 0 in 0.00 W/m2 unknown
01:29 39.2 °F 26.6 °F 30.6 in ENE 5 mph 8.7 mph 60% 0 in 0.00 W/m2 unknown
01:34 39.2 °F 26.6 °F 30.6 in ENE 4.3 mph 6.2 mph 61% 0 in 0.00 W/m2 unknown
01:39 39.2 °F 26.6 °F 30.6 in ENE 4.3 mph 6.2 mph 60% 0 in 0.00 W/m2 unknown
01:44 39.2 °F 26.6 °F 30.6 in ENE 4.3 mph 6.8 mph 60% 0 in 0.00 W/m2 unknown
01:49 39.2 °F 26.6 °F 30.6 in ENE 4.3 mph 6.8 mph 60% 0 in 0.00 W/m2 unknown
01:54 39.2 °F 26.6 °F 30.6 in ENE 4.3 mph 6.2 mph 60% 0 in 0.00 W/m2 unknown
01:59 39.2 °F 26.6 °F 30.6 in ENE 5 mph 6.8 mph 60% 0 in 0.00 W/m2 unknown
02:04 39.2 °F 26.6 °F 30.6 in ENE 5 mph 6.8 mph 60% 0 in 0.00 W/m2 unknown
02:09 39.2 °F 26.6 °F 30.6 in ENE 5 mph 6.8 mph 60% 0 in 0.00 W/m2 unknown
02:14 41 °F 26.6 °F 30.6 in ENE 5 mph 6.8 mph 59% 0 in 0.00 W/m2 unknown
02:19 41 °F 26.6 °F 30.6 in ENE 5.6 mph 6.8 mph 59% 0 in 0.00 W/m2 unknown
02:24 41 °F 26.6 °F 30.6 in East 5 mph 6.8 mph 59% 0 in 0.00 W/m2 unknown
02:29 41 °F 26.6 °F 30.6 in ENE 5.6 mph 9.3 mph 59% 0 in 0.00 W/m2 unknown
02:34 41 °F 28.4 °F 30.6 in ENE 6.2 mph 8.7 mph 59% 0 in 0.00 W/m2 unknown
02:39 41 °F 28.4 °F 30.6 in East 6.2 mph 9.3 mph 59% 0 in 0.00 W/m2 unknown
02:44 41 °F 28.4 °F 30.6 in ENE 6.2 mph 8.7 mph 59% 0 in 0.00 W/m2 unknown
02:49 41 °F 28.4 °F 30.6 in East 5 mph 8.1 mph 59% 0 in 0.00 W/m2 unknown
02:54 41 °F 28.4 °F 30.6 in ENE 4.3 mph 6.8 mph 60% 0 in 0.00 W/m2 unknown
02:59 41 °F 28.4 °F 30.6 in ENE 5 mph 8.1 mph 60% 0 in 0.00 W/m2 unknown
03:04 41 °F 28.4 °F 30.6 in ENE 5 mph 6.8 mph 60% 0 in 0.00 W/m2 unknown
03:09 41 °F 28.4 °F 30.6 in ENE 5 mph 6.8 mph 60% 0 in 0.00 W/m2 unknown
03:14 41 °F 28.4 °F 30.6 in ENE 5.6 mph 8.1 mph 60% 0 in 0.00 W/m2 unknown
03:19 41 °F 28.4 °F 30.6 in ENE 6.2 mph 8.1 mph 60% 0 in 0.00 W/m2 unknown
03:24 41 °F 28.4 °F 30.6 in East 3.7 mph 6.8 mph 60% 0 in 0.00 W/m2 unknown
03:29 41 °F 28.4 °F 30.6 in East 3.7 mph 6.8 mph 60% 0 in 0.00 W/m2 unknown
03:34 41 °F 28.4 °F 30.6 in East 5 mph 6.8 mph 60% 0 in 0.00 W/m2 unknown
03:39 41 °F 28.4 °F 30.6 in ENE 5 mph 6.8 mph 60% 0 in 0.00 W/m2 unknown
03:44 41 °F 28.4 °F 30.6 in ENE 5 mph 6.8 mph 60% 0 in 0.00 W/m2 unknown
03:49 41 °F 28.4 °F 30.6 in ENE 5 mph 6.8 mph 61% 0 in 0.00 W/m2 unknown
03:54 41 °F 28.4 °F 30.6 in ENE 5 mph 6.8 mph 61% 0 in 0.00 W/m2 unknown
03:59 41 °F 28.4 °F 30.6 in ENE 5 mph 6.8 mph 61% 0 in 0.00 W/m2 unknown
04:04 39.2 °F 28.4 °F 30.6 in ENE 5 mph 6.8 mph 62% 0 in 0.00 W/m2 unknown
04:09 39.2 °F 28.4 °F 30.6 in ENE 4.3 mph 6.8 mph 62% 0 in 0.00 W/m2 unknown
04:14 39.2 °F 28.4 °F 30.6 in ENE 3.7 mph 6.8 mph 62% 0 in 0.00 W/m2 unknown
04:19 39.2 °F 28.4 °F 30.6 in ENE 3.7 mph 5 mph 62% 0 in 0.00 W/m2 unknown
04:24 39.2 °F 26.6 °F 30.6 in ENE 5 mph 6.8 mph 62% 0 in 0.00 W/m2 unknown
04:29 39.2 °F 28.4 °F 30.6 in ENE 5.6 mph 6.8 mph 62% 0 in 0.00 W/m2 unknown
04:34 39.2 °F 28.4 °F 30.6 in ENE 5.6 mph 9.3 mph 62% 0 in 0.00 W/m2 unknown
04:39 39.2 °F 28.4 °F 30.6 in ENE 6.2 mph 8.7 mph 62% 0 in 0.00 W/m2 unknown
04:44 39.2 °F 28.4 °F 30.6 in ENE 6.2 mph 8.1 mph 61% 0 in 0.00 W/m2 unknown
04:49 41 °F 28.4 °F 30.6 in ENE 6.2 mph 8.1 mph 61% 0 in 0.00 W/m2 unknown
04:54 41 °F 28.4 °F 30.6 in ENE 8.1 mph 11.2 mph 61% 0 in 0.00 W/m2 unknown
04:59 41 °F 28.4 °F 30.6 in ENE 8.1 mph 11.8 mph 61% 0 in 0.00 W/m2 unknown
05:04 41 °F 28.4 °F 30.6 in ENE 8.1 mph 11.8 mph 61% 0 in 0.00 W/m2 unknown
05:09 41 °F 28.4 °F 30.6 in ENE 8.7 mph 10.6 mph 60% 0 in 0.00 W/m2 unknown
05:14 41 °F 28.4 °F 30.6 in ENE 8.7 mph 13 mph 60% 0 in 0.00 W/m2 unknown
05:19 41 °F 28.4 °F 30.6 in ENE 8.7 mph 13 mph 60% 0 in 0.00 W/m2 unknown
05:24 41 °F 28.4 °F 30.6 in ENE 8.1 mph 13 mph 60% 0 in 0.00 W/m2 unknown
05:29 41 °F 28.4 °F 30.6 in ENE 8.1 mph 11.8 mph 60% 0 in 0.00 W/m2 unknown
05:34 41 °F 28.4 °F 30.6 in ENE 9.3 mph 11.8 mph 60% 0 in 0.00 W/m2 unknown
05:39 41 °F 28.4 °F 30.6 in ENE 8.7 mph 13 mph 60% 0 in 0.00 W/m2 unknown
05:44 41 °F 28.4 °F 30.6 in ENE 9.9 mph 13 mph 60% 0 in 0.00 W/m2 unknown
05:49 41 °F 28.4 °F 30.6 in ENE 9.9 mph 14.3 mph 60% 0 in 0.00 W/m2 unknown
05:54 42.8 °F 28.4 °F 30.6 in ENE 8.1 mph 14.3 mph 60% 0 in 0.00 W/m2 unknown
05:59 42.8 °F 28.4 °F 30.6 in ENE 9.3 mph 14.3 mph 60% 0 in 0.00 W/m2 unknown
06:04 42.8 °F 28.4 °F 30.6 in ENE 8.7 mph 14.3 mph 59% 0 in 0.00 W/m2 unknown
06:09 42.8 °F 28.4 °F 30.6 in ENE 8.7 mph 13 mph 59% 0 in 0.00 W/m2 unknown
06:14 42.8 °F 28.4 °F 30.6 in ENE 9.3 mph 13 mph 59% 0 in 0.00 W/m2 unknown
06:19 42.8 °F 28.4 °F 30.6 in ENE 9.3 mph 11.8 mph 59% 0 in 0.00 W/m2 unknown
06:24 42.8 °F 28.4 °F 30.6 in ENE 9.3 mph 11.8 mph 59% 0 in 0.00 W/m2 unknown
06:29 42.8 °F 28.4 °F 30.6 in ENE 8.7 mph 11.8 mph 59% 0 in 7.00 W/m2 unknown
06:34 42.8 °F 28.4 °F 30.6 in ENE 9.3 mph 11.8 mph 59% 0 in 11.00 W/m2 unknown
06:39 42.8 °F 28.4 °F 30.6 in ENE 8.1 mph 13 mph 59% 0 in 14.00 W/m2 unknown
06:44 42.8 °F 28.4 °F 30.6 in ENE 8.7 mph 13 mph 59% 0 in 19.00 W/m2 unknown
06:49 42.8 °F 28.4 °F 30.6 in ENE 8.7 mph 11.8 mph 59% 0 in 23.00 W/m2 unknown
06:54 42.8 °F 28.4 °F 30.6 in ENE 8.7 mph 11.8 mph 59% 0 in 28.00 W/m2 unknown
06:59 42.8 °F 28.4 °F 30.6 in ENE 8.7 mph 13 mph 59% 0 in 35.00 W/m2 unknown
07:04 42.8 °F 28.4 °F 30.6 in ENE 9.3 mph 13 mph 58% 0 in 44.00 W/m2 unknown
07:09 42.8 °F 28.4 °F 30.6 in ENE 9.9 mph 14.3 mph 58% 0 in 53.00 W/m2 unknown
07:14 44.6 °F 28.4 °F 30.6 in East 9.3 mph 14.3 mph 56% 0 in 63.00 W/m2 unknown
07:19 44.6 °F 28.4 °F 30.6 in ENE 11.2 mph 13 mph 55% 0 in 74.00 W/m2 unknown
07:24 44.6 °F 28.4 °F 30.6 in ENE 8.7 mph 13 mph 54% 0 in 84.00 W/m2 unknown
07:29 44.6 °F 30.2 °F 30.6 in East 8.7 mph 13 mph 54% 0 in 95.00 W/m2 unknown
07:34 46.4 °F 30.2 °F 30.6 in East 8.7 mph 11.8 mph 54% 0 in 109.00 W/m2 unknown
07:39 46.4 °F 30.2 °F 30.6 in East 9.9 mph 13 mph 54% 0 in 120.00 W/m2 unknown
07:44 46.4 °F 30.2 °F 30.6 in East 9.3 mph 14.3 mph 53% 0 in 120.00 W/m2 unknown
07:49 46.4 °F 30.2 °F 30.6 in East 8.7 mph 14.3 mph 52% 0 in 151.00 W/m2 unknown
07:54 46.4 °F 30.2 °F 30.6 in East 8.7 mph 11.2 mph 52% 0 in 169.00 W/m2 unknown
07:59 46.4 °F 30.2 °F 30.6 in ENE 9.9 mph 11.8 mph 52% 0 in 181.00 W/m2 unknown
08:04 46.4 °F 30.2 °F 30.6 in East 9.9 mph 11.8 mph 52% 0 in 193.00 W/m2 unknown
08:09 46.4 °F 30.2 °F 30.6 in East 8.7 mph 11.8 mph 52% 0 in 211.00 W/m2 unknown
08:14 48.2 °F 30.2 °F 30.6 in East 9.3 mph 11.8 mph 52% 0 in 221.00 W/m2 unknown
08:19 48.2 °F 32 °F 30.6 in East 11.2 mph 14.9 mph 52% 0 in 236.00 W/m2 unknown
08:24 48.2 °F 32 °F 30.6 in East 10.6 mph 14.9 mph 52% 0 in 246.00 W/m2 unknown
08:29 48.2 °F 30.2 °F 30.6 in East 8.7 mph 14.9 mph 51% 0 in 262.00 W/m2 unknown
08:34 48.2 °F 32 °F 30.6 in East 8.1 mph 10.6 mph 51% 0 in 276.00 W/m2 unknown
08:39 48.2 °F 32 °F 30.6 in ENE 8.1 mph 10.6 mph 51% 0 in 287.00 W/m2 unknown
08:44 50 °F 32 °F 30.6 in ENE 11.2 mph 18 mph 51% 0 in 301.00 W/m2 unknown
08:49 50 °F 32 °F 30.6 in ENE 12.4 mph 18 mph 51% 0 in 313.00 W/m2 unknown
08:54 50 °F 32 °F 30.6 in ENE 14.3 mph 16.8 mph 48% 0 in 322.00 W/m2 unknown
08:59 50 °F 32 °F 30.6 in ENE 14.9 mph 19.9 mph 47% 0 in 341.00 W/m2 unknown
09:04 51.8 °F 30.2 °F 30.6 in ENE 16.2 mph 19.9 mph 46% 0 in 353.00 W/m2 unknown
09:09 51.8 °F 32 °F 30.6 in ENE 14.9 mph 21.1 mph 46% 0 in 367.00 W/m2 unknown
09:14 51.8 °F 32 °F 30.6 in ENE 15.5 mph 21.1 mph 46% 0 in 376.00 W/m2 unknown
09:19 51.8 °F 32 °F 30.6 in ENE 14.3 mph 21.1 mph 45% 0 in 390.00 W/m2 unknown
09:24 51.8 °F 30.2 °F 30.6 in ENE 17.4 mph 21.7 mph 43% 0 in 403.00 W/m2 unknown
09:29 51.8 °F 30.2 °F 30.6 in ENE 16.8 mph 26.7 mph 42% 0 in 415.00 W/m2 unknown
09:34 51.8 °F 30.2 °F 30.6 in ENE 16.2 mph 26.1 mph 42% 0 in 427.00 W/m2 unknown
09:39 51.8 °F 30.2 °F 30.6 in ENE 18 mph 24.2 mph 41% 0 in 441.00 W/m2 unknown
09:44 53.6 °F 30.2 °F 30.6 in East 16.2 mph 24.2 mph 42% 0 in 450.00 W/m2 unknown
09:49 53.6 °F 30.2 °F 30.6 in East 14.9 mph 21.7 mph 41% 0 in 461.00 W/m2 unknown
09:54 53.6 °F 30.2 °F 30.6 in East 14.9 mph 21.7 mph 41% 0 in 475.00 W/m2 unknown
09:59 53.6 °F 30.2 °F 30.6 in ENE 16.2 mph 21.7 mph 41% 0 in 485.00 W/m2 unknown
10:04 53.6 °F 30.2 °F 30.6 in East 13 mph 19.9 mph 41% 0 in 496.00 W/m2 unknown
10:09 53.6 °F 30.2 °F 30.6 in East 17.4 mph 21.7 mph 41% 0 in 503.00 W/m2 unknown
10:14 53.6 °F 30.2 °F 30.6 in East 17.4 mph 21.7 mph 39% 0 in 515.00 W/m2 unknown
10:19 53.6 °F 30.2 °F 30.6 in East 15.5 mph 23 mph 41% 0 in 527.00 W/m2 unknown
10:24 53.6 °F 30.2 °F 30.6 in East 16.2 mph 21.7 mph 40% 0 in 534.00 W/m2 unknown
10:29 55.4 °F 30.2 °F 30.6 in East 16.2 mph 21.7 mph 40% 0 in 545.00 W/m2 unknown
10:34 55.4 °F 30.2 °F 30.6 in East 13 mph 19.9 mph 40% 0 in 554.00 W/m2 unknown
10:39 55.4 °F 30.2 °F 30.6 in East 16.8 mph 21.7 mph 39% 0 in 564.00 W/m2 unknown
10:44 55.4 °F 32 °F 30.6 in East 13.7 mph 21.7 mph 40% 0 in 568.00 W/m2 unknown
10:49 55.4 °F 30.2 °F 30.6 in East 15.5 mph 19.9 mph 39% 0 in 580.00 W/m2 unknown
10:54 55.4 °F 32 °F 30.6 in ENE 13.7 mph 19.9 mph 39% 0 in 589.00 W/m2 unknown
10:59 55.4 °F 32 °F 30.6 in East 14.3 mph 18.6 mph 39% 0 in 594.00 W/m2 unknown
11:04 55.4 °F 30.2 °F 30.6 in ENE 14.3 mph 18.6 mph 38% 0 in 601.00 W/m2 unknown
11:09 55.4 °F 32 °F 30.6 in East 15.5 mph 19.9 mph 39% 0 in 606.00 W/m2 unknown
11:14 55.4 °F 30.2 °F 30.6 in East 15.5 mph 21.1 mph 36% 0 in 615.00 W/m2 unknown
11:19 55.4 °F 30.2 °F 30.6 in East 14.9 mph 21.1 mph 36% 0 in 619.00 W/m2 unknown
11:24 57.2 °F 30.2 °F 30.6 in ENE 13.7 mph 21.1 mph 36% 0 in 624.00 W/m2 unknown
11:29 57.2 °F 30.2 °F 30.6 in ENE 12.4 mph 19.9 mph 36% 0 in 628.00 W/m2 unknown
11:34 57.2 °F 30.2 °F 30.6 in ENE 13 mph 17.4 mph 36% 0 in 633.00 W/m2 unknown
11:39 57.2 °F 30.2 °F 30.6 in East 15.5 mph 21.1 mph 36% 0 in 640.00 W/m2 unknown
11:44 57.2 °F 28.4 °F 30.6 in ENE 16.2 mph 21.1 mph 35% 0 in 643.00 W/m2 unknown
11:49 57.2 °F 28.4 °F 30.6 in ENE 14.9 mph 21.7 mph 35% 0 in 649.00 W/m2 unknown
11:54 57.2 °F 28.4 °F 30.6 in ENE 14.3 mph 23 mph 34% 0 in 650.00 W/m2 unknown
11:59 57.2 °F 28.4 °F 30.6 in ENE 16.8 mph 23 mph 35% 0 in 652.00 W/m2 unknown
12:04 57.2 °F 30.2 °F 30.6 in ENE 16.2 mph 21.7 mph 35% 0 in 654.00 W/m2 unknown
12:09 57.2 °F 30.2 °F 30.6 in East 14.3 mph 19.3 mph 36% 0 in 657.00 W/m2 unknown
12:14 57.2 °F 30.2 °F 30.6 in ENE 15.5 mph 23 mph 35% 0 in 661.00 W/m2 unknown
12:19 57.2 °F 30.2 °F 30.6 in East 16.2 mph 23 mph 35% 0 in 663.00 W/m2 unknown
12:24 57.2 °F 30.2 °F 30.6 in East 14.3 mph 19.9 mph 35% 0 in 666.00 W/m2 unknown
12:29 57.2 °F 30.2 °F 30.6 in ESE 14.3 mph 18.6 mph 35% 0 in 666.00 W/m2 unknown
12:34 57.2 °F 30.2 °F 30.6 in East 13.7 mph 19.9 mph 36% 0 in 666.00 W/m2 unknown
12:39 57.2 °F 30.2 °F 30.6 in ENE 13 mph 19.9 mph 35% 0 in 663.00 W/m2 unknown
12:44 57.2 °F 30.2 °F 30.6 in East 14.3 mph 19.9 mph 35% 0 in 666.00 W/m2 unknown
12:49 57.2 °F 30.2 °F 30.6 in ESE 14.9 mph 19.3 mph 35% 0 in 664.00 W/m2 unknown
12:54 57.2 °F 30.2 °F 30.6 in ENE 14.9 mph 19.9 mph 35% 0 in 664.00 W/m2 unknown
12:59 57.2 °F 30.2 °F 30.6 in ENE 15.5 mph 19.9 mph 35% 0 in 661.00 W/m2 unknown
13:04 57.2 °F 30.2 °F 30.6 in ENE 12.4 mph 19.9 mph 35% 0 in 656.00 W/m2 unknown
13:09 57.2 °F 30.2 °F 30.6 in ESE 13.7 mph 16.8 mph 35% 0 in 657.00 W/m2 unknown
13:14 57.2 °F 30.2 °F 30.6 in ESE 13.7 mph 18.6 mph 36% 0 in 661.00 W/m2 unknown
13:19 57.2 °F 28.4 °F 30.6 in East 13 mph 18 mph 34% 0 in 654.00 W/m2 unknown
13:24 57.2 °F 28.4 °F 30.6 in East 12.4 mph 17.4 mph 34% 0 in 652.00 W/m2 unknown
13:29 57.2 °F 30.2 °F 30.6 in ESE 13 mph 19.9 mph 34% 0 in 650.00 W/m2 unknown
13:34 57.2 °F 28.4 °F 30.6 in ESE 13 mph 19.9 mph 34% 0 in 643.00 W/m2 unknown
13:39 57.2 °F 28.4 °F 30.6 in ESE 13 mph 18 mph 33% 0 in 642.00 W/m2 unknown
13:44 57.2 °F 28.4 °F 30.6 in East 12.4 mph 17.4 mph 33% 0 in 635.00 W/m2 unknown
13:49 57.2 °F 28.4 °F 30.6 in East 11.8 mph 16.8 mph 34% 0 in 628.00 W/m2 unknown
13:54 57.2 °F 30.2 °F 30.6 in ENE 11.8 mph 16.2 mph 34% 0 in 622.00 W/m2 unknown
13:59 59 °F 30.2 °F 30.6 in East 11.8 mph 16.2 mph 34% 0 in 619.00 W/m2 unknown
14:04 59 °F 28.4 °F 30.6 in ESE 11.8 mph 16.2 mph 33% 0 in 617.00 W/m2 unknown
14:09 57.2 °F 28.4 °F 30.6 in East 9.9 mph 13 mph 33% 0 in 601.00 W/m2 unknown
14:14 57.2 °F 28.4 °F 30.6 in East 13 mph 17.4 mph 33% 0 in 599.00 W/m2 unknown
14:19 59 °F 30.2 °F 30.6 in East 14.9 mph 26.7 mph 34% 0 in 587.00 W/m2 unknown
14:24 59 °F 30.2 °F 30.6 in ENE 13 mph 26.1 mph 33% 0 in 575.00 W/m2 unknown
14:29 59 °F 28.4 °F 30.6 in ENE 10.6 mph 18 mph 33% 0 in 566.00 W/m2 unknown
14:34 59 °F 28.4 °F 30.6 in ENE 13.7 mph 16.8 mph 32% 0 in 563.00 W/m2 unknown
14:39 59 °F 28.4 °F 30.6 in ENE 9.3 mph 16.8 mph 33% 0 in 557.00 W/m2 unknown
14:44 59 °F 30.2 °F 30.6 in East 9.3 mph 11.8 mph 34% 0 in 543.00 W/m2 unknown
14:49 59 °F 30.2 °F 30.6 in East 10.6 mph 14.3 mph 33% 0 in 531.00 W/m2 unknown
14:54 59 °F 30.2 °F 30.6 in ENE 14.3 mph 18.6 mph 33% 0 in 522.00 W/m2 unknown
14:59 59 °F 28.4 °F 30.6 in ENE 13 mph 18 mph 32% 0 in 515.00 W/m2 unknown
15:04 59 °F 28.4 °F 30.6 in ENE 11.8 mph 16.8 mph 33% 0 in 497.00 W/m2 unknown
15:09 59 °F 28.4 °F 30.6 in East 11.8 mph 16.2 mph 33% 0 in 483.00 W/m2 unknown
15:14 57.2 °F 28.4 °F 30.6 in East 12.4 mph 16.2 mph 32% 0 in 483.00 W/m2 unknown
15:19 59 °F 28.4 °F 30.6 in East 11.8 mph 16.2 mph 32% 0 in 475.00 W/m2 unknown
15:24 59 °F 28.4 °F 30.6 in East 10.6 mph 14.9 mph 32% 0 in 461.00 W/m2 unknown
15:29 59 °F 28.4 °F 30.6 in East 8.7 mph 14.9 mph 31% 0 in 450.00 W/m2 unknown
15:34 59 °F 28.4 °F 30.6 in ENE 11.2 mph 14.9 mph 32% 0 in 438.00 W/m2 unknown
15:39 59 °F 28.4 °F 30.6 in ENE 10.6 mph 17.4 mph 32% 0 in 432.00 W/m2 unknown
15:44 59 °F 28.4 °F 30.6 in East 11.2 mph 16.8 mph 32% 0 in 410.00 W/m2 unknown
15:49 57.2 °F 28.4 °F 30.6 in East 12.4 mph 16.2 mph 32% 0 in 401.00 W/m2 unknown
15:54 57.2 °F 28.4 °F 30.5 in East 11.8 mph 16.2 mph 32% 0 in 385.00 W/m2 unknown
15:59 57.2 °F 26.6 °F 30.5 in East 13 mph 16.2 mph 31% 0 in 369.00 W/m2 unknown
16:04 57.2 °F 28.4 °F 30.5 in ENE 13.7 mph 18 mph 32% 0 in 357.00 W/m2 unknown
16:09 57.2 °F 28.4 °F 30.5 in ENE 13.7 mph 18.6 mph 32% 0 in 345.00 W/m2 unknown
16:14 57.2 °F 28.4 °F 30.5 in East 11.8 mph 18 mph 33% 0 in 329.00 W/m2 unknown
16:19 57.2 °F 26.6 °F 30.5 in East 11.8 mph 16.8 mph 31% 0 in 320.00 W/m2 unknown
16:24 57.2 °F 28.4 °F 30.5 in ENE 12.4 mph 16.2 mph 32% 0 in 306.00 W/m2 unknown
16:29 57.2 °F 28.4 °F 30.5 in East 10.6 mph 16.2 mph 32% 0 in 290.00 W/m2 unknown
16:34 57.2 °F 28.4 °F 30.5 in ENE 10.6 mph 14.9 mph 32% 0 in 272.00 W/m2 unknown
16:39 57.2 °F 28.4 °F 30.5 in East 11.8 mph 17.4 mph 32% 0 in 255.00 W/m2 unknown
16:44 57.2 °F 26.6 °F 30.5 in East 13 mph 17.4 mph 31% 0 in 248.00 W/m2 unknown
16:49 57.2 °F 26.6 °F 30.5 in East 9.3 mph 16.8 mph 31% 0 in 236.00 W/m2 unknown
16:54 57.2 °F 26.6 °F 30.5 in East 9.9 mph 13 mph 30% 0 in 218.00 W/m2 unknown
16:59 57.2 °F 26.6 °F 30.5 in East 10.6 mph 14.3 mph 31% 0 in 204.00 W/m2 unknown
17:04 57.2 °F 26.6 °F 30.5 in ESE 14.9 mph 17.4 mph 30% 0 in 185.00 W/m2 unknown
17:09 57.2 °F 24.8 °F 30.5 in East 10.6 mph 16.8 mph 30% 0 in 169.00 W/m2 unknown
17:14 57.2 °F 24.8 °F 30.5 in East 9.3 mph 14.9 mph 30% 0 in 155.00 W/m2 unknown
17:19 57.2 °F 26.6 °F 30.5 in East 8.7 mph 14.9 mph 31% 0 in 144.00 W/m2 unknown
17:24 57.2 °F 26.6 °F 30.5 in East 8.7 mph 14.9 mph 31% 0 in 128.00 W/m2 unknown
17:29 55.4 °F 26.6 °F 30.5 in ESE 6.8 mph 14.9 mph 31% 0 in 113.00 W/m2 unknown
17:34 55.4 °F 26.6 °F 30.5 in ESE 10.6 mph 14.9 mph 33% 0 in 97.00 W/m2 unknown
17:39 55.4 °F 26.6 °F 30.5 in ESE 11.2 mph 14.9 mph 34% 0 in 83.00 W/m2 unknown
17:44 55.4 °F 26.6 °F 30.5 in ESE 10.6 mph 14.9 mph 34% 0 in 44.00 W/m2 unknown
17:49 55.4 °F 26.6 °F 30.5 in ESE 9.3 mph 14.9 mph 35% 0 in 40.00 W/m2 unknown
17:54 53.6 °F 26.6 °F 30.5 in ESE 8.7 mph 11.8 mph 35% 0 in 46.00 W/m2 unknown
17:59 53.6 °F 26.6 °F 30.6 in East 9.3 mph 12.4 mph 35% 0 in 40.00 W/m2 unknown
18:04 53.6 °F 26.6 °F 30.6 in East 7.5 mph 13 mph 36% 0 in 33.00 W/m2 unknown
18:09 53.6 °F 28.4 °F 30.6 in East 7.5 mph 10.6 mph 37% 0 in 26.00 W/m2 unknown
18:14 53.6 °F 28.4 °F 30.6 in East 8.1 mph 11.8 mph 37% 0 in 21.00 W/m2 unknown
18:19 53.6 °F 26.6 °F 30.6 in East 8.1 mph 11.8 mph 36% 0 in 16.00 W/m2 unknown
18:24 53.6 °F 26.6 °F 30.6 in East 8.1 mph 11.8 mph 36% 0 in 12.00 W/m2 unknown
18:29 51.8 °F 26.6 °F 30.6 in East 8.7 mph 11.8 mph 37% 0 in 7.00 W/m2 unknown
18:34 51.8 °F 26.6 °F 30.6 in East 8.1 mph 11.8 mph 37% 0 in 0.00 W/m2 unknown
18:39 51.8 °F 26.6 °F 30.6 in East 8.1 mph 9.3 mph 37% 0 in 0.00 W/m2 unknown
18:44 51.8 °F 26.6 °F 30.6 in East 8.1 mph 10.6 mph 37% 0 in 0.00 W/m2 unknown
18:49 51.8 °F 26.6 °F 30.6 in ENE 6.8 mph 10.6 mph 37% 0 in 0.00 W/m2 unknown
18:54 51.8 °F 24.8 °F 30.6 in ENE 6.2 mph 9.3 mph 37% 0 in 0.00 W/m2 unknown
18:59 50 °F 26.6 °F 30.6 in ENE 5.6 mph 8.7 mph 38% 0 in 0.00 W/m2 unknown
19:04 50 °F 26.6 °F 30.6 in East 6.2 mph 8.1 mph 38% 0 in 0.00 W/m2 unknown
19:09 50 °F 26.6 °F 30.6 in East 6.2 mph 8.1 mph 38% 0 in 0.00 W/m2 unknown
19:14 50 °F 24.8 °F 30.6 in ENE 5 mph 6.8 mph 38% 0 in 0.00 W/m2 unknown
19:19 50 °F 24.8 °F 30.6 in ENE 5 mph 6.8 mph 38% 0 in 0.00 W/m2 unknown
19:24 50 °F 24.8 °F 30.6 in East 5 mph 8.1 mph 38% 0 in 0.00 W/m2 unknown
19:29 50 °F 26.6 °F 30.6 in East 5.6 mph 8.1 mph 39% 0 in 0.00 W/m2 unknown
19:34 50 °F 26.6 °F 30.6 in East 6.8 mph 9.3 mph 40% 0 in 0.00 W/m2 unknown
19:39 50 °F 26.6 °F 30.6 in East 6.2 mph 8.7 mph 40% 0 in 0.00 W/m2 unknown
19:44 50 °F 26.6 °F 30.6 in East 8.1 mph 9.9 mph 40% 0 in 0.00 W/m2 unknown
19:49 50 °F 26.6 °F 30.6 in East 9.9 mph 14.3 mph 41% 0 in 0.00 W/m2 unknown
19:54 50 °F 26.6 °F 30.6 in East 11.2 mph 16.2 mph 41% 0 in 0.00 W/m2 unknown
19:59 50 °F 28.4 °F 30.6 in East 11.8 mph 16.2 mph 42% 0 in 0.00 W/m2 unknown
20:04 50 °F 28.4 °F 30.6 in East 9.9 mph 16.2 mph 42% 0 in 0.00 W/m2 unknown
20:09 50 °F 28.4 °F 30.6 in East 10.6 mph 14.3 mph 42% 0 in 0.00 W/m2 unknown
20:14 50 °F 28.4 °F 30.6 in East 9.9 mph 14.3 mph 43% 0 in 0.00 W/m2 unknown
20:19 50 °F 28.4 °F 30.6 in East 8.1 mph 14.3 mph 44% 0 in 0.00 W/m2 unknown
20:24 50 °F 28.4 °F 30.6 in East 8.1 mph 9.9 mph 44% 0 in 0.00 W/m2 unknown
20:29 50 °F 28.4 °F 30.6 in East 8.1 mph 10.6 mph 45% 0 in 0.00 W/m2 unknown
20:34 50 °F 28.4 °F 30.6 in East 6.8 mph 10.6 mph 45% 0 in 0.00 W/m2 unknown
20:39 48.2 °F 28.4 °F 30.6 in East 8.1 mph 11.8 mph 45% 0 in 0.00 W/m2 unknown
20:44 48.2 °F 28.4 °F 30.6 in East 7.5 mph 11.8 mph 46% 0 in 0.00 W/m2 unknown
20:49 48.2 °F 28.4 °F 30.6 in East 6.8 mph 9.3 mph 46% 0 in 0.00 W/m2 unknown
20:54 48.2 °F 28.4 °F 30.6 in ESE 6.8 mph 8.7 mph 47% 0 in 0.00 W/m2 unknown
20:59 48.2 °F 28.4 °F 30.6 in ESE 5 mph 8.1 mph 47% 0 in 0.00 W/m2 unknown
21:04 48.2 °F 28.4 °F 30.6 in ESE 6.2 mph 8.1 mph 46% 0 in 0.00 W/m2 unknown
21:09 48.2 °F 28.4 °F 30.6 in ESE 8.1 mph 10.6 mph 45% 0 in 0.00 W/m2 unknown
21:14 48.2 °F 28.4 °F 30.6 in ESE 6.2 mph 9.9 mph 45% 0 in 0.00 W/m2 unknown
21:19 48.2 °F 28.4 °F 30.6 in ESE 5 mph 6.8 mph 45% 0 in 0.00 W/m2 unknown
21:24 48.2 °F 28.4 °F 30.6 in ESE 5.6 mph 6.8 mph 45% 0 in 0.00 W/m2 unknown
21:29 48.2 °F 28.4 °F 30.6 in ESE 5.6 mph 6.8 mph 46% 0 in 0.00 W/m2 unknown
21:34 48.2 °F 28.4 °F 30.6 in ESE 5.6 mph 6.8 mph 46% 0 in 0.00 W/m2 unknown
21:39 48.2 °F 28.4 °F 30.6 in ESE 4.3 mph 6.8 mph 46% 0 in 0.00 W/m2 unknown
21:44 48.2 °F 28.4 °F 30.6 in ESE 4.3 mph 6.8 mph 49% 0 in 0.00 W/m2 unknown
21:49 48.2 °F 28.4 °F 30.6 in ESE 4.3 mph 6.2 mph 48% 0 in 0.00 W/m2 unknown
21:54 48.2 °F 28.4 °F 30.6 in ESE 5 mph 6.2 mph 48% 0 in 0.00 W/m2 unknown
21:59 48.2 °F 28.4 °F 30.6 in East 3.7 mph 6.2 mph 48% 0 in 0.00 W/m2 unknown
22:04 48.2 °F 28.4 °F 30.6 in ENE 3.1 mph 5 mph 48% 0 in 0.00 W/m2 unknown
22:09 46.4 °F 28.4 °F 30.6 in ENE 3.7 mph 5 mph 48% 0 in 0.00 W/m2 unknown
22:14 46.4 °F 28.4 °F 30.6 in ENE 6.2 mph 8.1 mph 48% 0 in 0.00 W/m2 unknown
22:19 46.4 °F 28.4 °F 30.6 in ENE 6.2 mph 9.3 mph 48% 0 in 0.00 W/m2 unknown
22:24 46.4 °F 28.4 °F 30.6 in ENE 6.2 mph 9.3 mph 48% 0 in 0.00 W/m2 unknown
22:29 46.4 °F 28.4 °F 30.6 in ENE 5 mph 8.7 mph 49% 0 in 0.00 W/m2 unknown
22:34 46.4 °F 26.6 °F 30.6 in ENE 4.3 mph 6.8 mph 49% 0 in 0.00 W/m2 unknown
22:39 44.6 °F 26.6 °F 30.6 in ENE 5 mph 6.8 mph 49% 0 in 0.00 W/m2 unknown
22:44 44.6 °F 26.6 °F 30.6 in ENE 4.3 mph 6.8 mph 49% 0 in 0.00 W/m2 unknown
22:49 44.6 °F 26.6 °F 30.6 in ENE 3.1 mph 5 mph 50% 0 in 0.00 W/m2 unknown
22:54 44.6 °F 26.6 °F 30.6 in NE 3.1 mph 3.7 mph 49% 0 in 0.00 W/m2 unknown
22:59 44.6 °F 26.6 °F 30.6 in ENE 3.1 mph 3.7 mph 49% 0 in 0.00 W/m2 unknown
23:04 44.6 °F 26.6 °F 30.6 in ENE 3.7 mph 5 mph 49% 0 in 0.00 W/m2 unknown
23:09 44.6 °F 26.6 °F 30.6 in ENE 3.1 mph 5 mph 50% 0 in 0.00 W/m2 unknown
23:14 44.6 °F 26.6 °F 30.6 in ENE 4.3 mph 5 mph 50% 0 in 0.00 W/m2 unknown
23:19 44.6 °F 26.6 °F 30.6 in ENE 4.3 mph 5 mph 49% 0 in 0.00 W/m2 unknown
23:24 44.6 °F 26.6 °F 30.6 in ENE 3.7 mph 5 mph 49% 0 in 0.00 W/m2 unknown
23:29 44.6 °F 26.6 °F 30.6 in ENE 3.7 mph 5 mph 49% 0 in 0.00 W/m2 unknown
23:34 44.6 °F 26.6 °F 30.6 in ENE 3.7 mph 5 mph 49% 0 in 0.00 W/m2 unknown
23:39 44.6 °F 26.6 °F 30.6 in ENE 3.1 mph 5 mph 49% 0 in 0.00 W/m2 unknown
23:44 44.6 °F 26.6 °F 30.6 in ENE 2.5 mph 5 mph 49% 0 in 0.00 W/m2 unknown
23:49 44.6 °F 26.6 °F 30.6 in ENE 3.1 mph 3.7 mph 48% 0 in 0.00 W/m2 unknown
23:54 44.6 °F 26.6 °F 30.6 in ENE 3.1 mph 3.7 mph 48% 0 in 0.00 W/m2 unknown
23:59 44.6 °F 26.6 °F 30.6 in ENE 3.7 mph 5 mph 48% 0 in 0.00 W/m2 unknown
Stazione Meteorologica MeteoMincio Rivalta s/M (MN)
Con i complimenti di Weather Underground - 4 mb



METEO PILLOLE
Maggior quantità di pioggia caduta in un ora
Holt (263.11 m), Missouri - USA
il 22 giugno 1947 caddero 305mm.
Share

Non seguire questo link o sarai bannato dal sito!